Weather History for Hazen, ND

Change the Weather History Date:

Friday, December 14, 2012

  Actual Average (KN60) Record (KN60)
Temperature  
Mean Temperature 14 °F -  
Max Temperature 23 °F 27 °F 52 °F (1997)
Min Temperature 5 °F 8 °F -18 °F (2008)
Degree Days  
Heating Degree Days 51    
Moisture  
Dew Point 14 °F    
Average Humidity 91    
Maximum Humidity 100    
Minimum Humidity 79    
Precipitation  
Precipitation 0.00 in - - ()
Sea Level Pressure  
Sea Level Pressure 29.77 in    
Wind  
Wind Speed 6 mph (South)    
Max Wind Speed 13 mph    
Max Gust Speed -    
Visibility 5 miles    
Events Fog    
Averages and records for this station are not official NWS values.
T = Trace of Precipitation, MM = Missing Value Source: NWS Daily Summary

Daily Weather History Graph

Daily Weather History Graph

Search for Another Location

Airport:

Trip Planner

Search our weather history database for the weather conditions in past years. The results will help you decide how hot, cold, wet, or windy it might be!

Date:

Astronomy

Dec. 14, 2012 Rise Set
Actual Time 8:26 AM CST 4:56 PM CST
Civil Twilight 7:50 AM CST 5:32 PM CST
Nautical Twilight 7:11 AM CST 6:11 PM CST
Astronomical Twilight 6:34 AM CST 6:48 PM CST
Moon 9:29 AM CST (12/14) 6:56 PM CST (12/14)
Length of Visible Light 9h 41m
Length of Day
8h 30m
Waxing Crescent, 3% of the Moon is Illuminated
Dec 14
Waxing Crescent
Dec 19
First Quarter
Dec 28
Full
Jan 4
Last Quarter
Jan 11
New

Hourly Weather History & Observations

Time (CST) Temp. Windchill Dew Point Humidity Pressure Visibility Wind Dir Wind Speed Gust Speed Precip Events Conditions
12:15 AM 23.0 °F 15.8 °F 21.2 °F 93% 29.91 in 4.0 mi South 5.8 mph - N/A   Overcast
12:35 AM 23.0 °F 13.9 °F 21.2 °F 93% 29.90 in 5.0 mi South 8.1 mph - N/A   Overcast
12:55 AM 23.0 °F 12.4 °F 19.4 °F 86% 29.89 in 6.0 mi South 10.4 mph - N/A   Overcast
1:15 AM 21.2 °F 12.6 °F 19.4 °F 93% 29.89 in 5.0 mi South 6.9 mph - N/A   Overcast
1:35 AM 21.2 °F 10.9 °F 19.4 °F 93% 29.88 in 9.0 mi SSW 9.2 mph - N/A   Overcast
1:55 AM 21.2 °F 10.9 °F 19.4 °F 93% 29.89 in 3.0 mi South 9.2 mph - N/A   Overcast
2:15 AM 19.4 °F 9.5 °F 19.4 °F 100% 29.88 in 5.0 mi South 8.1 mph - N/A   Overcast
2:35 AM 19.4 °F 12.8 °F 17.6 °F 93% 29.88 in 7.0 mi South 4.6 mph - N/A   Overcast
2:55 AM 19.4 °F 9.5 °F 17.6 °F 93% 29.87 in 5.0 mi South 8.1 mph - N/A   Overcast
3:15 AM 19.4 °F 7.2 °F 17.6 °F 93% 29.87 in 7.0 mi South 11.5 mph - N/A   Overcast
3:35 AM 19.4 °F 6.6 °F 17.6 °F 93% 29.87 in 7.0 mi South 12.7 mph - N/A   Overcast
3:55 AM 19.4 °F 9.5 °F 17.6 °F 93% 29.86 in 7.0 mi South 8.1 mph - N/A   Overcast
4:15 AM 19.4 °F 10.4 °F 17.6 °F 93% 29.85 in 8.0 mi SSW 6.9 mph - N/A   Overcast
4:35 AM 19.4 °F 8.6 °F 17.6 °F 93% 29.84 in 5.0 mi South 9.2 mph - N/A   Overcast
4:55 AM 19.4 °F 9.5 °F 17.6 °F 93% 29.84 in 5.0 mi South 8.1 mph - N/A   Overcast
5:15 AM 19.4 °F 8.6 °F 17.6 °F 93% 29.83 in 3.0 mi South 9.2 mph - N/A   Overcast
5:35 AM 19.4 °F 10.4 °F 17.6 °F 93% 29.82 in 3.0 mi South 6.9 mph - N/A   Overcast
5:55 AM 19.4 °F 9.5 °F 17.6 °F 93% 29.82 in 3.0 mi South 8.1 mph - N/A   Overcast
6:15 AM 19.4 °F 9.5 °F 17.6 °F 93% 29.81 in 3.0 mi South 8.1 mph - N/A   Overcast
6:35 AM 19.4 °F 10.4 °F 17.6 °F 93% 29.81 in 4.0 mi South 6.9 mph - N/A   Overcast
6:55 AM 19.4 °F 10.4 °F 19.4 °F 100% 29.80 in 3.0 mi SSW 6.9 mph - N/A   Overcast
7:15 AM 19.4 °F 10.4 °F 19.4 °F 100% 29.80 in 3.0 mi SSW 6.9 mph - N/A   Overcast
7:35 AM 19.4 °F 11.5 °F 17.6 °F 93% 29.80 in 3.0 mi SSW 5.8 mph - N/A   Overcast
7:55 AM 19.4 °F 9.5 °F 17.6 °F 93% 29.80 in 3.0 mi South 8.1 mph - N/A   Overcast
8:15 AM 19.4 °F 10.4 °F 17.6 °F 93% 29.80 in 1.8 mi SW 6.9 mph - N/A   Overcast
8:35 AM 19.4 °F 8.6 °F 17.6 °F 93% 29.79 in 2.0 mi SW 9.2 mph - N/A   Overcast
8:55 AM 17.6 °F 7.3 °F 15.8 °F 93% 29.79 in 3.0 mi SW 8.1 mph - N/A   Overcast
9:15 AM 17.6 °F 7.3 °F 15.8 °F 93% 29.79 in 4.0 mi SSW 8.1 mph - N/A   Overcast
9:35 AM 17.6 °F 9.3 °F 15.8 °F 93% 29.80 in 2.0 mi South 5.8 mph - N/A   Overcast
9:55 AM 17.6 °F 9.3 °F 15.8 °F 93% 29.79 in 2.0 mi South 5.8 mph - N/A   Overcast
10:15 AM 19.4 °F 11.5 °F 15.8 °F 86% 29.79 in 2.5 mi SSW 5.8 mph - N/A   Overcast
10:35 AM 19.4 °F 11.5 °F 15.8 °F 86% 29.80 in 3.0 mi SSW 5.8 mph - N/A   Overcast
10:55 AM 17.6 °F 8.2 °F 15.8 °F 93% 29.79 in 8.0 mi SSW 6.9 mph - N/A   Overcast
11:15 AM 17.6 °F 7.3 °F 15.8 °F 93% 29.78 in 4.0 mi South 8.1 mph - N/A   Overcast
11:35 AM 17.6 °F 8.2 °F 15.8 °F 93% 29.77 in 3.0 mi South 6.9 mph - N/A   Overcast
11:55 AM 17.6 °F 9.3 °F 15.8 °F 93% 29.77 in 6.0 mi SSW 5.8 mph - N/A   Overcast
12:15 PM 17.6 °F 12.3 °F 15.8 °F 93% 29.76 in 7.0 mi SW 3.5 mph - N/A   Overcast
12:35 PM 17.6 °F 12.3 °F 15.8 °F 93% 29.75 in 7.0 mi SSW 3.5 mph - N/A   Overcast
12:55 PM 17.6 °F 8.2 °F 15.8 °F 93% 29.73 in 8.0 mi South 6.9 mph - N/A   Overcast
1:15 PM 17.6 °F 10.7 °F 15.8 °F 93% 29.73 in 10.0 mi South 4.6 mph - N/A   Overcast
1:35 PM 19.4 °F 14.3 °F 15.8 °F 86% 29.72 in 10.0 mi South 3.5 mph - N/A   Overcast
1:55 PM 19.4 °F 14.3 °F 17.6 °F 93% 29.71 in 10.0 mi WSW 3.5 mph - N/A   Overcast
2:15 PM 19.4 °F 14.3 °F 17.6 °F 93% 29.71 in 10.0 mi South 3.5 mph - N/A   Overcast
2:35 PM 19.4 °F - 17.6 °F 93% 29.70 in 10.0 mi Calm Calm - N/A   Overcast
2:55 PM 19.4 °F 14.3 °F 17.6 °F 93% 29.70 in 10.0 mi SE 3.5 mph - N/A   Overcast
3:15 PM 19.4 °F - 17.6 °F 93% 29.69 in 10.0 mi Calm Calm - N/A   Overcast
3:35 PM 19.4 °F 14.3 °F 17.6 °F 93% 29.69 in 10.0 mi South 3.5 mph - N/A   Overcast
4:15 PM 19.4 °F 12.8 °F 15.8 °F 86% 29.69 in 10.0 mi South 4.6 mph - N/A   Overcast
4:35 PM 17.6 °F - 15.8 °F 93% 29.70 in 5.0 mi Calm Calm - N/A   Overcast
4:55 PM 17.6 °F - 14.0 °F 86% 29.70 in 5.0 mi Calm Calm - N/A   Overcast
5:15 PM 15.8 °F - 14.0 °F 93% 29.70 in 0.5 mi Calm Calm - N/A Fog Light Freezing Fog
5:35 PM 10.4 °F 4.0 °F 8.6 °F 92% 29.71 in 10.0 mi SSE 3.5 mph - N/A   Overcast
5:55 PM 6.8 °F -2.0 °F 3.2 °F 85% 29.70 in 10.0 mi SSE 4.6 mph - N/A   Scattered Clouds
6:15 PM 6.8 °F -2.0 °F 1.4 °F 79% 29.70 in 10.0 mi SSE 4.6 mph - N/A   Clear
6:35 PM 6.8 °F -2.0 °F 1.4 °F 79% 29.71 in 10.0 mi SE 4.6 mph - N/A   Clear
6:55 PM 6.8 °F -0.1 °F 1.4 °F 79% 29.70 in 10.0 mi SSE 3.5 mph - N/A   Mostly Cloudy
7:15 PM 5.0 °F - 1.4 °F 85% 29.70 in 10.0 mi Calm Calm - N/A   Overcast
7:55 PM 8.6 °F 2.0 °F 5.0 °F 85% 29.71 in 0.8 mi South 3.5 mph - N/A   Overcast
8:35 PM 8.6 °F 0.1 °F 5.0 °F 85% 29.71 in 0.2 mi SE 4.6 mph - N/A Fog Light Freezing Fog
8:55 PM 8.6 °F 2.0 °F 5.0 °F 85% 29.70 in 0.2 mi SSE 3.5 mph - N/A Fog Light Freezing Fog
9:15 PM 8.6 °F 2.0 °F 5.0 °F 85% 29.70 in 0.2 mi SSE 3.5 mph - N/A Fog Light Freezing Fog
9:35 PM 8.6 °F 2.0 °F 5.0 °F 85% 29.71 in 0.2 mi South 3.5 mph - N/A Fog Light Freezing Fog
9:55 PM 8.6 °F 0.1 °F 5.0 °F 85% 29.70 in 0.5 mi SSE 4.6 mph - N/A Fog Light Freezing Fog
10:15 PM 8.6 °F -1.3 °F 5.0 °F 85% 29.70 in 2.5 mi SE 5.8 mph - N/A   Overcast
10:35 PM 8.6 °F 2.0 °F 5.0 °F 85% 29.70 in 1.0 mi SE 3.5 mph - N/A   Overcast
10:55 PM 10.4 °F - 6.8 °F 85% 29.70 in 0.2 mi Calm Calm - N/A Fog Light Freezing Fog
11:15 PM 10.4 °F - 6.8 °F 85% 29.70 in 0.2 mi Calm Calm - N/A Fog Light Freezing Fog
11:35 PM 10.4 °F - 6.8 °F 85% 29.70 in 0.2 mi Calm Calm - N/A Fog Light Freezing Fog